Station OLSA2 - 9462450 - Nikolski, AK Image indicating link to RSS feed of recent meteorological observations for station OLSA2


Conditions at OLSA2 as of
(6:48 pm AKDT on 07/22/2024)
0248 GMT on 07/23/2024:
     

Click on the graph icon in the table below to see a time series plot of the last five days of that observation.

5-day plot - Wind Direction Wind Direction (WDIR):ESE ( 120 deg true )
5-day plot - Wind Speed Wind Speed (WSPD): 13.0 kts
5-day plot - Wind Gust Wind Gust (GST): 14.0 kts
5-day plot - Atmospheric Pressure Atmospheric Pressure (PRES):29.94 in
5-day plot - Air Temperature Air Temperature (ATMP): 50.4 °F
5-day plot - Wind Chill Wind Chill (CHILL): 45.1 °F
5-day plot - Wind Speed at 10 Meters Wind Speed at 10 meters (WSPD10M): 13.6 kts
5-day plot - Wind Speed at 20 Meters Wind Speed at 20 meters (WSPD20M): 13.6 kts
5-day plot -  Wind Speed, Wind Gust and Atmospheric Pressure Combined plot of Wind Speed, Gust, and Air Pressure
NOS Water Level Observation Network Water Level
Previous observations
TIME
(AKDT)
5-day plot - Wind Direction
WDIR
 
5-day plot - Wind Speed
WSPD
kts
5-day plot - Wind Gust
GST
kts
5-day plot - Wave Height
WVHT
ft
5-day plot - Dominant Wave Period
DPD
sec
5-day plot - Average Wave Period
APD
sec
5-day plot - Mean Wave Direction
MWD
 
5-day plot - Atmospheric Pressure
PRES
in
5-day plot - Pressure Tendency
PTDY
in
5-day plot - Air Temperature
ATMP
°F
5-day plot - Water Temperature
WTMP
°F
5-day plot - Dew Point
DEWP
°F
5-day plot - Salinity
SAL
psu
5-day plot - Visibility
VIS
nmi
5-day plot - Tide (above MLLW)
TIDE
ft
2024-07-22 06:42 pmESE 13.0 14.0----29.94- 50.4-----
2024-07-22 06:36 pmESE 12.0 15.0----29.94- 50.9-----
2024-07-22 06:30 pmESE 14.0 15.9----29.94- 50.9-----
2024-07-22 06:24 pm SE 13.0 15.0----29.94- 51.1-----
2024-07-22 06:18 pm SE 12.0 15.0----29.94- 51.4-----
2024-07-22 06:12 pm SE 12.0 15.0----29.94- 51.4-----
2024-07-22 06:06 pm SE 12.0 15.0----29.94- 51.6-----
2024-07-22 06:00 pm SE 13.0 15.9----29.94-0.01 51.4-----
2024-07-22 05:54 pm SE 12.0 15.0----29.94- 52.2-----
2024-07-22 05:48 pm SE 11.1 15.0----29.94- 52.0-----
2024-07-22 05:42 pmESE 14.0 15.9----29.94- 52.0-----
2024-07-22 05:36 pm SE 11.1 14.0----29.94- 52.5-----
2024-07-22 05:30 pm SE 9.9 12.0----29.94- 53.4-----
2024-07-22 05:24 pm SE 9.9 12.0----29.94- 52.5-----
2024-07-22 05:18 pmSSE 9.9 14.0----29.94- 52.7-----
2024-07-22 05:12 pmSSE 12.0 13.0----29.94- 52.5-----
2024-07-22 05:06 pmSSE 11.1 13.0----29.94- 52.9-----
2024-07-22 05:00 pm SE 11.1 13.0----29.94+0.00 52.5-----
2024-07-22 04:54 pm SE 12.0 13.0----29.94- 52.2-----
2024-07-22 04:48 pm SE 11.1 13.0----29.94- 51.6-----
2024-07-22 04:42 pm SE 9.9 12.0----29.94- 52.0-----
2024-07-22 04:36 pm SE 11.1 13.0----29.94- 52.5-----
2024-07-22 04:30 pmSSE 11.1 13.0----29.94- 52.7-----
2024-07-22 04:24 pmSSE 11.1 13.0----29.94- 52.5-----
2024-07-22 04:18 pmSSE 11.1 13.0----29.94- 52.0-----
2024-07-22 04:12 pmSSE 11.1 13.0----29.94- 52.5-----
2024-07-22 04:06 pmSSE 9.9 14.0----29.94- 52.7-----
2024-07-22 04:00 pmSSE 9.9 13.0----29.94-0.01 52.7-----
2024-07-22 03:54 pmSSE 9.9 13.0----29.94- 52.5-----
2024-07-22 03:48 pm SE 9.9 13.0----29.94-------
2024-07-22 03:42 pmSSE 9.9 13.0----29.94-------
2024-07-22 03:36 pm SE 9.9 13.0----29.94-------
2024-07-22 03:30 pm SE 11.1 13.0----29.94-------
2024-07-22 03:24 pmSSE 11.1 12.0----29.94-------
2024-07-22 03:18 pmSSE 11.1 12.0----29.94- 52.5-----
2024-07-22 03:12 pm SE 11.1 13.0----29.94- 52.5-----
2024-07-22 03:06 pm SE 11.1 12.0----29.94- 52.3-----
2024-07-22 03:00 pmSSE 9.9 13.0----29.95+0.00 52.9-----
2024-07-22 02:54 pm SE 11.1 12.0----29.95- 52.2-----
2024-07-22 02:48 pm SE 11.1 13.0----29.95- 52.3-----
2024-07-22 02:42 pmSSE 11.1 13.0----29.95- 51.8-----
2024-07-22 02:36 pm SE 11.1 13.0----29.95- 51.6-----
2024-07-22 02:30 pm SE 11.1 13.0----29.95- 51.6-----
2024-07-22 02:24 pmSSE 11.1 13.0----29.95- 51.8-----
2024-07-22 02:18 pm SE 11.1 13.0----29.95- 51.8-----
2024-07-22 02:12 pm SE 11.1 13.0----29.95- 52.0-----
2024-07-22 02:06 pm SE 12.0 13.0----29.95- 51.3-----
2024-07-22 02:00 pm SE 13.0 15.0----29.95+0.00 50.9-----
2024-07-22 01:54 pmSSE 12.0 14.0----29.95- 51.3-----
2024-07-22 01:48 pm SE 12.0 14.0----29.94- 51.4-----
2024-07-22 01:42 pmSSE 12.0 14.0----29.94- 51.1-----
2024-07-22 01:36 pm SE 12.0 15.0----29.95- 50.0-----
2024-07-22 01:30 pm-------29.95-------
2024-07-22 01:24 pm-------29.95-------
2024-07-22 01:18 pm SE 14.0 17.1----29.95- 50.0-----
2024-07-22 01:12 pm SE 15.0 17.1----29.95- 50.2-----
2024-07-22 01:06 pm SE 14.0 15.0----29.95- 50.2-----
2024-07-22 01:00 pm SE 13.0 15.9----29.95+0.00------
2024-07-22 12:54 pmSSE 9.9 14.0----29.95-------
2024-07-22 12:48 pmSSE 11.1 13.0----29.95- 50.2-----
2024-07-22 12:42 pmSSE 9.9 13.0----29.95- 50.5-----
2024-07-22 12:36 pm SE 11.1 14.0----29.95- 50.5-----
2024-07-22 12:30 pmSSE 12.0 15.0----29.95- 50.4-----
2024-07-22 12:24 pm SE 12.0 15.0----29.94- 50.5-----
2024-07-22 12:18 pmSSE 13.0 14.0----29.95- 50.4-----
2024-07-22 12:12 pmSSE 11.1 13.0----29.95- 50.7-----
2024-07-22 12:06 pm SE 9.9 13.0----29.95- 50.4-----
2024-07-22 12:00 pmSSE 9.9 12.0----29.95+0.01 50.2-----
2024-07-22 11:54 am SE 9.9 13.0----29.95- 50.2-----
2024-07-22 11:48 amSSE 8.9 11.1----29.95-------
2024-07-22 11:42 amSSE 8.9 12.0----29.95-------
2024-07-22 11:36 amSSE 8.0 11.1----29.95-------
2024-07-22 11:30 amSSE 8.0 9.9----29.95- 49.8-----
2024-07-22 11:24 am SE 8.0 11.1----29.95- 49.8-----
2024-07-22 11:18 amSSE 7.0 9.9----29.95- 49.8-----
2024-07-22 11:12 amSSE 8.0 9.9----29.95- 49.6-----
2024-07-22 11:06 amSSE 8.0 9.9----29.95- 49.6-----
2024-07-22 11:00 amSSE 8.9 12.0----29.95+0.01 49.8-----
2024-07-22 10:54 am SE 11.1 13.0----29.95- 49.8-----
2024-07-22 10:48 am SE 11.1 13.0----29.95- 50.0-----
2024-07-22 10:42 am SE 8.9 12.0----29.95- 50.2-----
2024-07-22 10:36 am SE 8.9 11.1----29.95- 50.2-----
2024-07-22 10:30 am SE 9.9 12.0----29.94- 50.0-----
2024-07-22 10:24 am SE 9.9 11.1----29.94- 50.0-----
2024-07-22 10:18 am SE 9.9 11.1----29.94- 50.0-----
2024-07-22 10:12 am SE 8.9 11.1----29.94- 50.0-----
2024-07-22 10:06 am SE 8.9 12.0----29.94- 50.4-----
2024-07-22 10:00 am SE 9.9 12.0----29.94+0.01 50.4-----
2024-07-22 09:54 am SE 9.9 12.0----29.94- 50.4-----
2024-07-22 09:48 am SE 9.9 12.0----29.95- 50.2-----
2024-07-22 09:42 am SE 8.9 12.0----29.95- 50.2-----
2024-07-22 09:36 amSSE 9.9 12.0----29.95- 50.0-----
2024-07-22 09:30 amSSE 8.9 13.0----29.94- 50.2-----
2024-07-22 09:24 am SE 9.9 12.0----29.94- 50.2-----
2024-07-22 09:18 am SE 9.9 12.0----29.94- 50.2-----
2024-07-22 09:12 am SE 8.9 12.0----29.94- 50.2-----
2024-07-22 09:06 am SE 8.9 11.1----29.94- 49.6-----
2024-07-22 09:00 am SE 8.9 11.1----29.94+0.01 49.6-----
2024-07-22 08:54 amESE 8.9 9.9----29.94- 49.5-----
2024-07-22 08:48 amESE 8.9 11.1----29.94- 49.6-----
2024-07-22 08:42 amESE 8.9 9.9----29.94- 49.5-----
2024-07-22 08:36 amESE 8.0 9.9----29.94- 49.6-----
2024-07-22 08:30 am SE 8.0 12.0----29.94- 49.6-----
2024-07-22 08:24 am SE 8.9 12.0----29.94- 50.0-----
2024-07-22 08:18 am SE 11.1 13.0----29.94- 49.8-----
2024-07-22 08:12 am SE 12.0 13.0----29.94- 49.8-----
2024-07-22 08:06 am SE 11.1 12.0----29.94- 49.8-----
2024-07-22 08:00 am SE 9.9 12.0----29.94+0.00 49.8-----
2024-07-22 07:54 am SE 8.9 12.0----29.94- 49.8-----
2024-07-22 07:48 am SE 9.9 12.0----29.94- 49.8-----
2024-07-22 07:42 am S 2.9 5.1----29.93- 49.8-----
2024-07-22 07:36 am S 2.9 8.9----29.93- 49.8-----
2024-07-22 07:30 am SE 8.0 8.9----29.93- 49.6-----
2024-07-22 07:24 amESE 7.0 8.9----29.93- 49.6-----
2024-07-22 07:18 amESE 7.0 8.0----29.93- 49.3-----
2024-07-22 07:12 am SE 7.0 8.9----29.93- 49.3-----
2024-07-22 07:06 am SE 7.0 8.0----29.93- 49.6-----
2024-07-22 07:00 am SE 6.0 7.0----29.93-0.01 49.5-----
2024-07-22 06:54 amSSE 5.1 8.9----29.93- 49.3-----
2024-07-22 06:48 amSSE 6.0 9.9----29.93- 49.3-----
2024-07-22 06:42 amSSE 7.0 9.9----29.93- 49.3-----
2024-07-22 06:36 amSSE 6.0 8.0----29.93- 49.1-----
2024-07-22 06:30 amSSE 7.0 8.0----29.93- 49.3-----
2024-07-22 06:24 amSSE 6.0 8.0----29.93- 49.1-----
2024-07-22 06:18 amSSE 6.0 8.0----29.93- 49.3-----
2024-07-22 06:12 amSSE 6.0 9.9----29.93- 49.5-----
2024-07-22 06:06 amSSE 8.0 9.9----29.93- 49.5-----
2024-07-22 06:00 am SE 8.0 9.9----29.93-0.02 49.5-----
2024-07-22 05:54 am SE 7.0 8.9----29.93- 49.6-----
2024-07-22 05:48 amSSE 8.0 8.9----29.93- 49.5-----
2024-07-22 05:42 am SE 8.0 8.9----29.93- 49.5-----
2024-07-22 05:36 am SE 8.0 8.9----29.93- 49.3-----
2024-07-22 05:30 amSSE 8.0 9.9----29.93- 49.5-----
2024-07-22 05:24 am SE 7.0 8.9----29.93- 49.3-----
2024-07-22 05:18 am SE 8.0 8.0----29.93- 49.5-----
2024-07-22 05:12 am SE 7.0 8.0----29.93- 49.5-----
2024-07-22 05:06 am SE 6.0 7.0----29.93- 49.3-----
2024-07-22 05:00 amSSE 6.0 7.0----29.94+0.00 49.3-----
2024-07-22 04:54 amSSE 6.0 7.0----29.94- 49.3-----
2024-07-22 04:48 amSSE 5.1 7.0----29.94- 49.5-----
2024-07-22 04:42 am S 5.1 8.0----29.94- 49.5-----
2024-07-22 04:36 am S 6.0 7.0----29.94- 49.5-----
2024-07-22 04:30 am S 6.0 7.0----29.94- 49.5-----
2024-07-22 04:24 am S 5.1 7.0----29.94- 49.5-----
2024-07-22 04:18 am S 5.1 8.0----29.95- 49.5-----
2024-07-22 04:12 am S 7.0 8.0----29.95- 49.3-----
2024-07-22 04:06 am S 6.0 8.0----29.95- 49.5-----
2024-07-22 04:00 amSSE 6.0 8.0----29.94+0.00 49.3-----
2024-07-22 03:54 amSSE 7.0 8.9----29.95- 49.3-----
2024-07-22 03:48 am S 6.0 8.0----29.95- 49.5-----
2024-07-22 03:42 am S 6.0 8.0----29.95- 49.5-----
2024-07-22 03:36 am S 7.0 8.9----29.95- 49.5-----
2024-07-22 03:30 am S 8.9 9.9----29.95- 49.5-----
2024-07-22 03:24 amSSE 7.0 9.9----29.95- 49.3-----
2024-07-22 03:18 amSSE 8.0 8.9----29.95- 49.3-----
2024-07-22 03:12 amSSE 7.0 9.9----29.95- 49.3-----
2024-07-22 03:06 amSSE 8.0 9.9----29.95- 49.3-----
2024-07-22 03:00 amSSE 8.0 11.1----29.95+0.00 49.3-----
2024-07-22 02:54 am S 8.9 9.9----29.95- 49.1-----
2024-07-22 02:48 am S 8.0 9.9----29.95- 49.3-----
2024-07-22 02:42 amSSE 7.0 8.0----29.95- 49.3-----
2024-07-22 02:36 amSSE 5.1 8.0----29.95- 49.1-----
2024-07-22 02:30 amSSE 5.1 8.0----29.94- 49.3-----
2024-07-22 02:24 amSSE 4.1 6.0----29.95- 49.3-----
2024-07-22 02:18 amSSE 4.1 5.1----29.94- 49.3-----
2024-07-22 02:12 amSSE 4.1 5.1----29.94- 49.1-----
2024-07-22 02:06 amSSE 4.1 5.1----29.94- 49.1-----
2024-07-22 02:00 amSSE 4.1 6.0----29.94+0.02 49.1-----
2024-07-22 01:54 amSSE 5.1 7.0----29.94- 49.1-----
2024-07-22 01:48 am S 6.0 7.0----29.94- 49.1-----
2024-07-22 01:42 am S 5.1 7.0----29.94- 49.1-----
2024-07-22 01:36 am S 6.0 7.0----29.94- 48.9-----
2024-07-22 01:30 am S 7.0 8.0----29.94- 48.9-----
2024-07-22 01:24 am S 8.0 8.9----29.94- 48.9-----
2024-07-22 01:18 am S 8.0 8.0----29.94- 48.9-----
2024-07-22 01:12 am S 6.0 7.0----29.94- 49.1-----
2024-07-22 01:06 am S 6.0 8.0----29.94- 49.1-----
2024-07-22 01:00 amSSE 4.1 6.0----29.94+0.02 49.3-----
2024-07-22 12:54 am S 4.1 6.0----29.94- 49.5-----
2024-07-22 12:48 am S 4.1 6.0----29.94- 49.3-----
2024-07-22 12:42 am S 5.1 6.0----29.94- 49.3-----
2024-07-22 12:36 am S 4.1 5.1----29.94- 49.3-----
2024-07-22 12:30 amSSE 4.1 5.1----29.94- 49.3-----
2024-07-22 12:24 am S 4.1 5.1----29.94- 49.1-----
2024-07-22 12:18 am S 4.1 4.1----29.94- 49.1-----
2024-07-22 12:12 am S 2.9 4.1----29.94- 49.1-----
2024-07-22 12:06 am S 2.9 4.1----29.95- 48.9-----
2024-07-22 12:00 am S 2.9 5.1----29.94+0.03 48.9-----
2024-07-21 11:54 pm S 4.1 6.0----29.94- 48.9-----
2024-07-21 11:48 pm S 2.9 5.1----29.94- 48.7-----
2024-07-21 11:42 pmSSW 5.1 6.0----29.94- 48.9-----
2024-07-21 11:36 pmSSW 5.1 5.1----29.93- 48.9-----
2024-07-21 11:30 pmSSW 2.9 5.1----29.93- 48.7-----
2024-07-21 11:24 pm SW 2.9 5.1----29.93- 48.7-----
2024-07-21 11:18 pmWSW 4.1 5.1----29.93- 48.7-----
2024-07-21 11:12 pm SW 2.9 4.1----29.93- 48.6-----
2024-07-21 11:06 pmWSW 2.9 5.1----29.92- 48.6-----
2024-07-21 11:00 pm W 2.9 5.1----29.93+0.01 48.6-----
2024-07-21 10:54 pmWSW 2.9 5.1----29.92- 48.6-----
2024-07-21 10:48 pm W 1.9 5.1----29.92- 48.6-----
2024-07-21 10:42 pmWSW 4.1 5.1----29.92- 48.6-----
2024-07-21 10:36 pmWSW 5.1 8.0----29.92- 48.6-----
2024-07-21 10:30 pmWSW 7.0 8.9----29.93- 48.6-----
2024-07-21 10:24 pmWSW 8.0 9.9----29.93- 48.7-----
2024-07-21 10:18 pmWSW 7.0 8.9----29.93- 48.9-----
2024-07-21 10:12 pmWSW 6.0 7.0----29.92- 49.1-----
2024-07-21 10:06 pmWSW 5.1 7.0----29.92- 48.9-----
2024-07-21 10:00 pmWSW 5.1 7.0----29.92+0.01 48.9-----
2024-07-21 09:54 pm SW 5.1 7.0----29.92- 49.5-----
2024-07-21 09:48 pm SW 5.1 8.0----29.92- 49.6-----
2024-07-21 09:42 pm SW 7.0 11.1----29.92- 49.6-----
2024-07-21 09:36 pm SW 6.0 9.9----29.92- 50.0-----
2024-07-21 09:30 pm SW 5.1 8.0----29.92- 50.2-----
2024-07-21 09:24 pmSSW 8.0 9.9----29.92- 50.0-----
2024-07-21 09:18 pm SW 8.9 11.1----29.92- 50.2-----
2024-07-21 09:12 pm SW 8.0 8.9----29.92- 50.4-----
2024-07-21 09:06 pm SW 8.0 12.0----29.92- 50.4-----
2024-07-21 09:00 pm SW 8.9 11.1----29.92+0.00 50.4-----
2024-07-21 08:54 pmSSW 7.0 11.1----29.92- 50.4-----
2024-07-21 08:48 pm SW 8.9 12.0----29.92- 50.4-----
2024-07-21 08:42 pm SW 8.9 12.0----29.92- 50.4-----
2024-07-21 08:36 pm SW 7.0 8.9----29.91- 50.5-----
2024-07-21 08:30 pm--------- 50.4-----
2024-07-21 08:24 pm--------- 50.7-----
2024-07-21 08:18 pmWSW 6.0 8.0----29.91- 50.5-----
2024-07-21 08:12 pmWSW 7.0 9.9----29.91- 50.2-----
2024-07-21 08:06 pm SW 8.0 11.1----29.91- 50.0-----
2024-07-21 08:00 pm SW 8.0 9.9----29.91+0.00 50.0-----
2024-07-21 07:54 pmWSW 8.0 8.9----29.91- 49.8-----
2024-07-21 07:48 pmWSW 7.0 8.9----29.91-------
2024-07-21 07:42 pm SW 7.0 9.9----29.91-------
2024-07-21 07:36 pmWSW 8.9 11.1----29.91-------
2024-07-21 07:30 pmWSW 5.1 11.1----29.91- 50.9-----
2024-07-21 07:24 pmWSW 7.0 8.9----29.91- 51.1-----
2024-07-21 07:18 pmWSW 8.0 9.9----29.91- 50.5-----
2024-07-21 07:12 pmWSW 7.0 8.9----29.91- 49.6-----
2024-07-21 07:06 pmWSW 6.0 12.0----29.91- 50.0-----
2024-07-21 07:00 pm SW 9.9 13.0----29.91+0.00 50.0-----
2024-07-21 06:54 pm SW 8.9 12.0----29.91- 50.9-----